Location: Bucharest
(44.4268°N, 26.1025°E)
Time: 12:51:36
(UTC+03:00)

ESTCUBE 1 - Pass Details

Date: 06 July 2022
Orbit: 645 x 657 km, 97.9° (Epoch: 15 August)

Event Time Altitude Azimuth Distance (km) Brightness Sun altitude
Exits shadow 00:46:08 11° 250° (WSW) 1,961 ? -22.4°
Maximum altitude 00:47:37 13° 271° (W) 1,861 ? -22.4°
Drops below altitude 10° 00:49:40 10° 298° (WNW) 2,056 ? -22.5°
Sets 00:53:08 0° 327° (NNW) 2,976 ? -22.6°
